Location: Cahas Mountain Overlook
(37.0833°N, 80.1000°W)
Time: 03:14:13
(UTC-05:00)

Explorer 7 - All Passes

Search period start: 28 January 2022 00:00
Search period end: 07 February 2022 00:00
Orbit: 483 x 674 km, 50.3° (Epoch: 27 January)

Date Brightness Start Highest point End Pass type
(mag) Time Alt. Az. Time Alt. Az. Time Alt. Az.
28 Jan - 07:32:51 10° SSW 07:36:11 28° SE 07:39:39 10° ENE daylight
28 Jan - 09:12:45 10° WSW 09:16:29 40° NNW 09:20:27 10° NE daylight
28 Jan - 10:55:20 10° NW 10:57:54 16° N 11:00:33 10° NNE daylight
28 Jan - 12:37:01 10° NNW 12:39:47 16° NNE 12:42:39 10° NE daylight
28 Jan - 14:16:57 10° NW 14:21:13 40° NNE 14:25:41 10° E daylight
28 Jan - 15:57:26 10° WNW 16:01:45 39° SW 16:06:14 10° SSE daylight
29 Jan - 07:36:11 10° SSW 07:39:53 49° SE 07:43:48 10° ENE daylight
29 Jan - 09:17:03 10° W 09:20:30 28° NNW 09:24:09 10° NE daylight
29 Jan - 10:59:50 10° NW 11:02:07 14° N 11:04:28 10° NNE daylight
29 Jan - 12:40:50 10° NNW 12:43:58 19° NNE 12:47:12 10° ENE daylight
29 Jan - 14:20:42 10° NW 14:25:10 58° NE 14:29:50 10° ESE daylight
29 Jan - 16:01:43 10° WNW 16:05:27 24° SW 16:09:19 10° S daylight
30 Jan - 07:39:51 10° SW 07:43:41 87° SE 07:47:44 10° NE daylight
30 Jan - 09:21:30 10° WNW 09:24:35 21° NNW 09:27:50 10° NNE daylight
30 Jan - 11:04:10 10° NNW 11:06:21 14° N 11:08:36 10° NNE daylight
30 Jan - 12:44:33 10° NNW 12:48:05 23° NNE 12:51:45 10° ENE daylight
30 Jan - 14:24:30 10° NW 14:29:02 89° NE 14:33:47 10° SE daylight
30 Jan - 16:06:31 10° W 16:09:06 15° SW 16:11:44 10° SSW daylight
31 Jan - 06:04:56 10° S 06:07:30 17° SE 06:10:08 10° E visible
31 Jan - 07:43:46 10° WSW 07:47:33 56° NW 07:51:33 10° NE daylight
31 Jan - 09:26:02 10° WNW 09:28:44 17° NNW 09:31:31 10° NNE daylight
31 Jan - 11:08:15 10° NNW 11:10:34 14° N 11:12:57 10° NE daylight
31 Jan - 12:48:15 10° NW 12:52:08 30° NNE 12:56:11 10° E daylight
31 Jan - 14:28:24 10° WNW 14:32:50 58° SW 14:37:29 10° SE daylight
01 Feb - 06:07:49 10° SSW 06:11:09 30° SE 06:14:36 10° ENE visible
01 Feb - 07:47:54 10° W 07:51:29 36° NNW 07:55:16 10° NE daylight
01 Feb - 09:30:37 10° NW 09:32:55 15° N 09:35:17 10° NNE daylight
01 Feb - 11:12:08 10° NNW 11:14:46 16° NNE 11:17:28 10° NE daylight
01 Feb - 12:51:57 10° NW 12:56:07 41° NNE 13:00:30 10° ESE daylight
01 Feb - 14:32:28 10° WNW 14:36:35 35° SW 14:40:54 10° SSE daylight
02 Feb - 06:11:12 10° SW 06:14:52 54° SE 06:18:42 10° ENE visible
02 Feb - 07:52:14 10° W 07:55:30 25° NNW 07:58:56 10° NNE daylight
02 Feb - 09:35:06 10° NNW 09:37:07 13° N 09:39:11 10° NNE daylight
02 Feb - 11:15:54 10° NNW 11:18:55 19° NNE 11:22:03 10° ENE daylight
02 Feb - 12:55:42 10° NW 13:00:02 62° NE 13:04:37 10° ESE daylight
02 Feb - 14:36:48 10° W 14:40:17 22° SW 14:43:52 10° S daylight
03 Feb - 04:38:12 10° SE 04:38:50 10° SE 04:39:30 10° ESE visible
03 Feb - 06:14:54 10° SW 06:18:40 86° NW 06:22:36 10° NE visible
03 Feb - 07:56:43 10° WNW 07:59:36 19° NNW 08:02:35 10° NNE daylight
03 Feb - 09:39:24 10° NNW 09:41:20 13° N 09:43:20 10° NNE daylight
03 Feb - 11:19:35 10° NNW 11:23:01 23° NNE 11:26:35 10° ENE daylight
03 Feb - 12:59:30 10° NW 13:03:53 85° SW 13:08:32 10° SE daylight
03 Feb - 14:41:50 10° W 14:43:55 13° SW 14:46:02 10° SSW daylight
04 Feb - 04:39:46 10° S 04:42:27 19° SE 04:45:10 10° E visible
04 Feb - 06:18:52 10° WSW 06:22:32 51° NW 06:26:23 10° NE visible
04 Feb - 08:01:17 10° NW 08:03:44 16° NNW 08:06:15 10° NNE daylight
04 Feb - 09:43:25 10° NNW 09:45:33 14° N 09:47:44 10° NE daylight
04 Feb - 11:23:16 10° NW 11:27:02 30° NNE 11:31:01 10° E daylight
04 Feb - 13:03:25 10° WNW 13:07:41 52° SW 13:12:11 10° SSE daylight
05 Feb - 04:42:44 10° SSW 04:46:06 33° SE 04:49:34 10° ENE visible
05 Feb - 06:23:02 10° W 06:26:29 33° NNW 06:30:05 10° NE visible
05 Feb - 08:05:52 10° NW 08:07:54 14° N 08:09:59 10° NNE daylight
05 Feb - 09:47:14 10° NNW 09:49:44 15° NNE 09:52:17 10° NE daylight
05 Feb - 11:26:57 10° NW 11:31:00 43° NNE 11:35:18 10° ESE daylight
05 Feb - 13:07:31 10° WNW 13:11:25 32° SW 13:15:30 10° SSE daylight
06 Feb - 04:46:10 10° SW 04:49:50 59° SE 04:53:37 10° ENE visible
06 Feb - 06:27:23 10° W 06:30:30 23° NNW 06:33:43 10° NNE visible
06 Feb - 08:10:21 10° NNW 08:12:06 12° N 08:13:53 10° NNE daylight
06 Feb - 09:50:57 10° NNW 09:53:51 18° NNE 09:56:52 10° ENE daylight
06 Feb - 11:30:41 10° NW 11:34:54 66° NE 11:39:23 10° ESE daylight
06 Feb - 13:11:56 10° W 13:15:06 19° SW 13:18:21 10° S daylight
